Location: Waco, TX
(31.5480°N, 97.1670°W)
Time: 02:10:30
(UTC-06:00)

ISS - Pass Details

Date: 09 November 2018
Orbit: 401 x 408 km, 51.6° (Epoch: 20 November)

Event Time Altitude Azimuth Distance (km) Brightness Sun altitude
Rises 01:02:49 0° 253° (WSW) 2,301 - -71.4°
Reaches altitude 10° 01:05:11 10° 269° (W) 1,446 - -71.1°
Maximum altitude 01:07:46 22° 323° (NW) 943 - -70.7°
Drops below altitude 10° 01:10:22 10° 16° (NNE) 1,453 - -70.3°
Sets 01:12:46 0° 32° (NNE) 2,315 - -69.9°
